Volver al catálogo

STARLINK-32176

ActivoComunicacionesVLEO
NORAD 60340·PAYLOAD·🇺🇸 United States

Lanzado Aug 2, 2024 desde Cape Canaveral Space Force Station

Loading…

Próximos Pases (próximas 24 horas)

TLE

ActualizadoSource: CelesTrak SupGP

Época: Sep 14, 2026, 22:08 UTC

1 60340C 24136M   26257.92270833  .00049234  00000+0  14561-2 0  2572
2 60340  53.1570 275.8465 0001311 103.4487  89.2367 15.34334521    13

Sigue STARLINK-32176 en tiempo real con AllMySat

Download on the App Store